Location: Unspecified
(0.0000°N, 0.0000°E)
Time: 00:16:20
(UTC+00:00)

Vanguard 1 Rocket - Pass Details

Date: 12 December 2017
Orbit: 652 x 4225 km, 34.3° (Epoch: 20 July)

Event Time Altitude Azimuth Distance (km) Brightness Sun altitude
Rises 21:28:49 0° 320° (NW) 6,803 11.9 -47.8°
Reaches altitude 10° 21:34:00 10° 331° (NNW) 6,261 11.5 -48.9°
Enters shadow 21:39:18 19° 344° (NNW) 5,869 11.2 -49.9°
Maximum altitude 21:52:52 32° 29° (NNE) 5,656 - -52.6°
Drops below altitude 10° 22:14:10 10° 84° (E) 7,153 - -56.5°
Sets 22:20:29 0° 93° (E) 7,860 - -57.6°
